Location: Faicchio
(41.2833°N, 14.4833°E)
Time: 06:46:17
(UTC+00:00)

Envisat - Pass Details

Date: 15 June 2025
Orbit: 761 x 763 km, 98.3° (Epoch: 16 July)

Event Time Altitude Azimuth Distance (km) Brightness Sun altitude
Rises 01:18:22 0° 21° (NNE) 3,233 7.8 -18.1°
Reaches altitude 10° 01:20:50 10° 29° (NNE) 2,302 6.8 -17.9°
Maximum altitude 01:25:34 39° 98° (E) 1,139 4.1 -17.4°
Enters shadow 01:29:40 13° 163° (SSE) 2,074 4.9 -17.0°
